Location: Chagrin Falls Park
(41.4139°N, 81.3865°W)
Time: 08:44:58
(UTC+00:00)

STARLINK-2727 - Pass Details

Date: 11 December 2021
Orbit: 546 x 548 km, 53.1° (Epoch: 22 January)

Event Time Altitude Azimuth Distance (km) Brightness Sun altitude
Rises 00:47:43 0° 309° (NW) 2,722 7.8 -31.3°
Reaches altitude 10° 00:49:58 10° 312° (NW) 1,826 6.7 -31.7°
Enters shadow 00:50:36 14° 314° (NW) 1,582 6.4 -31.9°
